Orbital Elements at Epoch 2459000.5 (2020-May-31.0) TDB
Reference: JPL 25 (heliocentric ecliptic J2000)
Element | Value | Uncertainty (1-sigma) | Units |
e | .1862620161602375 | 6.6752e-08 | |
a | 2.543951127579285 | 1.1885e-08 | au |
q | 2.070109661543257 | 1.7335e-07 | au |
i | 13.07978705405761 | 6.6106e-06 | deg |
node | 151.1796052472809 | 1.6611e-05 | deg |
peri | 154.6827851305953 | 2.0448e-05 | deg |
M | 73.09038492381875 | 1.0328e-05 | deg |
tp | 2458699.601986377789 (2019-Aug-04.10198638) | 4.2079e-05 | TDB |
period | 1482.045620869287 4.06 | 1.0386e-05 2.844e-08 | d yr |
n | .2429075022595078 | 1.7022e-09 | deg/d |
Q | 3.017792593615312 | 1.4099e-08 | au |
|
| | Orbit Determination Parameters
Additional Information
|